CZ-6A DEB

Satellite information

Favourite Embed

Satellite Type and Status

DEBRISIN ORBIT

Key statistics

Satellite CZ-6A DEB at a glance.

Uptime

1129

Days in orbit

Revolutions

≈ 14.2

Per day

Orbit

SSO

Sun Synchronous Orbit

Inclination

98.8

Latest

Satellite identification and parameters

Extended collection of information and parameters for CZ-6A DEB.

Object identification

Identified? True

Debris? True

Object name: CZ-6A DEB

International designator: 2022-151PP

Object number (NORAD): 54637

Object ID (CCSDS): 54637

Country: PEOPLES REPUBLIC OF CHINA (PRC)

Current information (Y/N): Y

RCS size: SMALL

Orbital parameters

Period: 101.557 minutes

Inclination: 98.8387 deg

SMA: 7210.53 km

Apoapsis: 876.793 km

Periapsis: 787.997 km

RAAN: 347.4954 deg

Eccentricy: 0.0061574

Argument of periapsis: 158.2043 deg

Mean anomaly: 202.1773 deg

Mean motion: 14.17920768 rev/day

Mean motion (dot): 0.00005758 rev/day2

B* drag term: 0.002783 1/REarth

Two-line elements (TLE)

Creation date: Dec. 12, 2025, 7:16 a.m.

Reference frame: TEME

Reference center: EARTH

Epoch: Dec. 11, 2025, 10:48 p.m. UTC

TLE line 0: 0 CZ-6A DEB

TLE line 1: 1 54637U 22151PP 25345.95013250 .00005758 00000-0 27830-2 0 9997

TLE line 2: 2 54637 98.8387 347.4954 0061574 158.2043 202.1773 14.17920768157484

Live tracking on map

Real-time ground track for satellite CZ-6A DEB.

In-orbit conjunctions

A list of the most updated potential collisions computed for object CZ-6A DEB.

Target Orbit TCA Probability of collision Miss distance Type
COSMOS 2251 DEB LEO 2025-08-14 02:07:40 0.0001280412 61.0 (m) DEBRIS
CZ-6A DEB LEO 2025-02-28 03:09:24 0.0001034858 951.0 (m) DEBRIS

Associated space launch

Chinese satellite reported for atmospheric/ocean/environmental/spatial parameter research purposes, details TBD.

CZ-6A DEB was lifted into orbit during the mission ‘Long March 6A | Yunhai 3’, on board a Long March 6A space rocket.

The launch took place on Nov. 11, 2022, 10:52 p.m. from Launch Complex 9A.

For more information about the launch, click the button.

Launch to space Long March 6A | Yunhai 3
Long March 6A | Yunhai 3

Agency: N/A

Status: Launch Successful

Launch date: Nov. 11, 2022, 10:52 p.m. UTC

Rocket: Long March 6A

Launch pad: Launch Complex 9A

Location: Taiyuan Satellite Launch Center, People's Republic of China

...

Latest news about this satellite

There are no fresh news available about this satellite. Check back as we update our databases every day.


Newsletter sign-up

Weekly statistics, charts and insights to help you stay on top of the space industry.